SCP
0 0 0 0 0 0 0 0 0 0 0 0 0 0 0 0 0 0 0 0 0 0 0 0 0 0 0 0 0 0 0 0 0 0 0 0 0 0 0 0 0 0 0 0
0 0 0 0 0 0 0 0 0 0 0 0 0 0 0 0 0 0 0 0 0 0 0 0 0 0 0 0 0 0 0 0 0 0 0 0 0 0 0 0 0 0 0 0
0 0 0 0 0 0 0 0 0 0 0 0 0 0 0 0 0 0 0 0 0 0 0 0 0 0 0 0 0 0 0 0 0 0 0 0 0 0 0 0 0 0 0 0
0 0 0 0 0 0 0 0 0 0 0 0 0 0 0 0 0 0 0 0 0 0 0 0 0 0 0 0 0 0 0 0 0 0 0 0 0 0 0 0 0 0 0 0
0 0 0 0 0 0 0 0 0 0 0 0 0 0 0 0 0 0 0 0 0 0 0 0 0 0 0 0 0 0 0 0 0 0 0 0 0 0 0 0 0 0 0 0
0 0 0 0 0 0 0 0 0 0 0 0 0 0 0 0 0 0 -0 0 0 0 0 0 0 0 0 0 0 0 0 0 0 0 0 0 0 0 0 0 0 0 0 0
0 0 0 0 0 0 0 0 0 0 0 0 0 0 0 0 0 0 0 0 0 0 0 0 0 0 0 0 0 0 0 0 0 0 0 0 0 0 0 0 0 0 0 0
0 0 0 0 0 0 0 0 0 0 0 0 0 0 0 0 0 0 0 0 0 0 0 0 0 0 0 0 0 0 0 0 0 0 0 0 0 0 0 0 0 0 0 0
0 0 0 0 0 0 0 0 0 0 0 0 0 0 0 0 0 0 0 0 0 0 0 0 0 0 0 0 0 0 0 0 0 0 0 0 0 0 0 0 0 0 0 0
0 0 0 0 0 0 0 0 0 0 0 0 0 0 0 0 0 0 0 0 0 0 0 0 0 0 0 0 0 0 0 0 0 0 0 0 0 0 0 0 0 0 0 0
0 0 0 0 0 0 0 0 0 0 0 0 0 0 0 0 0 0 0 0 0 0 0 0 0 0 0 0 0 0 0 0 0 0 0 0 0 0 0 0 0 0 0 0
0 0 0 0 0 0 0 0 0 0 0 0 0 0 0 0 0 0 0 0 0 0 0 0 0 0 0 0 0 0 0 0 0 0 0 0 0 0 0 0 0 0 0 0
0 0 0 0 0 0 0 0 0 0 0 0 0 0 0 0 0 0 0 0 0 0 0 0 0 0 0 0 0 0 0 0 0 0 0 0 0 0 0 0 0 0 0 0
0 0 0 0 0 0 0 0 0 0 0 0 0 0 0 0 0 0 0 0 0 0 0 0 0 0 0 0 0 0 0 0 0 0 0 0 0 0 0 0 0 0 0 0
0 0 0 0 0 0 0 0 0 0 0 0 0 0 0 0 0 0 0 0 0 0 0 0 0 0 0 0 0 0 0 0 0 0 0 0 0 0 0 0 0 0 0 0
0 0 0 0 0 0 0 0 0 0 0 0 0 0 0 0 0 0 0 0 0 0 0 0 0 0 0 0 0 0 0 0 0 0 0 0 0 0 0 0 0 0 0 0
0 0 0 0 0 0 0 0 0 0 0 0 0 0 0 0 0 0 0 0 0 0 0 0 0 0 0 0 0 0 0 0 0 0 0 0 0 0 0 0 0 0 0 0
0 0 0 0 0 0 0 0 0 0 0 0 0 0 0 0 0 0 0 0 0 0 0 0 0 0 0 0 0 0 0 0 0 0 0 0 0 0 0 0 0 0 0 0
0 0 0 0 0 0 0 0 0 0 0 0 0 0 0 0 0 0 0 0 0 0 0 0 0 0 0 0 0 0 0 0 0 0 0 0 0 0 0 0 0 0 0 0
0 0 0 0 0 0 0 0 0 0 0 0 0 0 0 0 0 0 0 0 0 0 0 0 0 0 0 0 0 0 0 0 0 0 0 0 0 0 0 0 0 0 0 0
0 0 0 0 0 0 0 0 0 0 0 0 0 0 0 0 0 0 0 0 0 0 0 0 0 0 0 0 0 0 0 0 0 0 0 0 0 0 0 0 0 0 0 0
0 0 0 0 0 0 0 0 0 0 0 0 0 0 0 0 0 0 0 0 0 0 0 0 0 0 0 0 0 0 0 0 0 0 0 0 0 0 0 0 0 0 0 0
0 0 0 0 0 0 0 0 0 0 0 0 0 0 0 0 0 0 0 0 0 0 0 0 0 0 0 0 0 0 0 0 0 0 0 0 0 0 0 0 0 0 0 0
0 0 0 0 0 0 0 0 0 0 0 0 0 0 0 0 0 0 0 0 0 0 0 0 0 0 0 0 0 0 0 0 0 0 0 0 0 0 0 0 0 0 0 0
0 0 0 0 0 0 0 0 0 0 0 0 0 0 0 0 0 0 0 0 0 0 0 0 0 0 0 0 0 0 0 0 0 0 0 0 0 0 0 0 0 0 0 0
0 0 0 0 0 0 0 0 0 0 0 0 0 0 0 0 0 0 0 0 0 0 0 0 0 0 0 0 0 0 0 0 0 0 0 0 0 0 0 0 0 0 0 0
0 0 0 0 0 0 0 0 0 0 0 0 0 0 0 0 0 0 0 0 0 0 0 0 0 0 0 0 0 0 0 0 0 0 0 0 0 0 0 0 0 0 0 0
Wind_Speed
9 8 5 5 6 8 9 7 5 5 5 3 2 1 1 0 1 1 2 3 5 5 5 6 6 6 7 7 7 6 7 6 6 6 6 6 5 4 4 4 4 4 3 3
7 7 6 6 7 8 9 9 9 9 9 5 4 3 2 2 1 2 2 3 4 5 6 6 7 7 7 7 7 7 7 7 7 7 6 6 5 4 4 4 3 3 3 3
5 4 3 5 6 8 7 7 7 8 7 5 5 4 3 2 2 3 3 3 4 5 5 6 7 8 8 8 7 7 7 7 7 7 6 6 5 5 4 4 3 3 2 3
4 3 3 2 2 2 5 5 5 6 5 4 4 4 4 3 3 3 3 3 3 3 4 5 6 7 8 8 8 7 7 7 7 7 6 6 5 5 4 3 3 3 3 3
3 3 3 1 2 3 1 1 4 4 5 4 4 4 3 4 4 3 2 1 1 2 3 4 6 8 8 8 8 7 7 7 7 7 7 7 6 5 4 4 3 3 3 3
3 3 1 3 5 5 2 1 7 6 6 5 4 2 2 5 5 5 4 3 1 1 2 4 5 7 8 8 8 8 7 7 7 7 7 7 6 5 4 4 4 4 3 3
5 3 1 5 6 4 2 3 7 7 7 6 3 2 3 4 5 4 4 4 3 3 3 3 4 6 6 7 7 6 7 7 7 7 7 7 6 5 5 4 4 4 4 3
2 2 1 6 5 4 4 5 6 7 7 6 5 4 4 4 4 4 4 4 4 4 3 3 4 5 5 5 5 6 7 7 7 6 6 6 6 5 5 5 5 4 4 3
2 2 3 3 3 4 5 6 6 7 7 6 5 5 4 4 3 3 4 4 4 4 3 3 3 4 4 4 5 6 6 6 6 6 5 6 6 6 5 5 4 4 4 4
4 3 4 3 4 6 7 7 7 7 7 6 5 4 4 3 3 3 3 3 3 3 3 2 2 3 3 4 5 6 6 6 6 6 6 5 5 5 5 5 5 5 5 4
4 4 5 4 8 9 9 8 8 7 5 5 5 4 3 3 3 2 2 2 3 2 2 2 2 2 3 4 5 5 5 5 5 5 6 5 5 5 6 6 6 6 5 5
3 5 6 9 9 10 9 9 8 8 6 5 4 3 3 2 2 2 2 2 2 2 2 2 2 2 2 3 4 5 4 5 4 4 4 4 4 4 7 6 10 11 9 8
5 7 8 10 9 8 8 8 8 7 5 4 4 3 2 2 2 2 2 3 2 2 2 1 1 1 1 2 3 3 4 4 4 4 5 5 5 5 4 5 9 11 12 12
5 6 7 7 9 9 8 8 6 5 4 3 3 2 2 1 2 2 2 2 2 2 2 2 1 1 1 1 2 3 3 4 4 4 4 4 5 5 4 4 4 5 9 14
5 7 8 9 9 8 7 6 6 4 3 3 3 3 2 2 2 2 2 2 2 2 2 2 2 2 2 0 1 2 2 2 3 3 3 4 4 4 4 5 5 4 3 6
8 8 7 8 9 8 7 6 5 4 3 3 3 3 3 2 1 1 2 2 2 2 2 2 2 2 2 1 1 1 2 4 3 3 3 4 4 4 5 5 5 5 5 5
7 7 8 9 9 9 7 6 5 3 3 2 2 3 2 2 1 1 2 2 1 1 1 2 2 3 2 2 1 1 1 2 4 3 3 4 4 5 5 5 5 5 5 6
5 6 7 7 8 8 7 5 4 3 3 2 2 2 2 2 2 2 2 2 1 1 2 2 2 3 2 2 2 1 2 2 2 3 3 4 4 4 5 5 5 6 5 6
4 5 6 6 7 6 5 4 4 3 3 3 2 2 2 2 2 3 2 2 2 2 2 3 5 3 2 3 3 2 2 2 3 3 3 5 5 4 4 5 5 6 5 5
4 4 4 5 5 5 4 4 4 3 3 2 2 2 3 3 3 3 2 1 1 1 3 3 3 2 2 3 4 2 2 3 3 3 3 3 4 4 4 5 5 5 5 5
4 4 4 4 4 4 4 4 3 3 3 2 2 2 3 3 3 3 2 2 2 2 3 5 2 2 2 4 4 2 3 3 3 3 3 3 4 4 4 4 5 5 5 5
4 4 4 4 4 4 3 3 3 3 3 2 2 2 3 3 3 3 2 1 2 5 3 2 2 4 5 5 2 3 3 3 3 3 3 3 3 4 4 4 4 4 4 5
4 4 4 4 4 4 4 3 3 3 3 3 3 3 3 3 2 2 3 2 2 5 4 3 5 8 8 3 2 3 3 3 3 3 3 3 3 4 4 5 4 4 4 4
4 4 4 3 3 4 4 4 3 3 3 3 3 3 3 3 3 2 2 5 6 7 3 5 8 8 7 2 2 3 3 3 3 3 4 4 4 4 4 4 4 4 4 5
4 4 4 4 4 4 4 4 4 4 3 3 3 3 2 2 3 3 2 3 6 6 3 5 8 8 4 2 2 3 3 3 4 3 3 3 4 4 4 4 4 4 4 4
4 4 4 4 4 3 3 2 3 3 3 3 3 2 2 2 2 3 2 3 4 6 4 3 3 4 2 2 3 3 3 4 4 4 4 4 4 4 4 4 5 5 4 5
4 4 3 3 3 3 3 3 3 3 3 3 4 3 2 2 2 3 3 3 3 3 3 3 2 2 3 3 3 3 3 3 3 3 4 4 4 4 4 5 5 5 5 5
Wind_Direction
284 282 262 241 234 226 224 231 242 265 274 287 317 313 309 282 193 159 176 178 176 172 169 164 159 153 149 145 143 140 135 133 129 122 116 113 113 110 105 100 99 98 97 98
284 268 260 259 249 240 237 238 249 270 277 287 302 318 316 304 293 273 245 217 191 182 178 171 167 162 153 151 149 143 140 137 131 128 126 127 128 127 122 117 113 110 112 116
285 295 287 264 243 230 230 232 237 251 263 293 299 300 296 288 272 255 246 232 203 190 185 176 170 162 159 155 147 145 144 142 141 139 138 139 139 135 134 131 121 119 117 114
284 300 247 261 1 243 236 248 248 261 281 292 301 308 322 326 310 289 267 241 209 194 185 171 159 152 147 145 147 149 149 149 148 146 146 144 141 141 137 126 126 129 125 123
279 269 256 291 9 357 310 332 352 318 319 321 319 317 347 5 360 339 319 280 192 174 166 152 147 146 143 146 149 153 158 158 157 154 152 151 152 152 143 137 140 143 139 139
277 284 285 16 348 337 327 8 9 0 350 349 354 333 341 6 11 9 5 11 43 73 101 126 136 138 144 153 158 169 168 162 157 156 155 158 160 155 148 149 156 153 151 155
262 265 313 355 330 341 8 356 352 356 356 3 360 339 331 360 16 16 15 21 32 68 92 116 129 136 149 157 170 166 151 148 150 152 154 154 152 151 150 152 155 159 162 171
301 274 315 358 2 21 347 337 349 358 355 354 349 347 359 11 16 19 27 28 36 58 67 79 113 132 146 157 148 135 138 143 148 150 152 153 152 153 156 158 165 174 176 183
290 288 329 358 7 350 350 345 347 347 343 343 342 347 360 12 16 29 38 35 43 66 68 63 85 118 139 143 134 135 140 147 151 151 152 156 161 164 165 173 179 182 184 192
288 293 339 354 4 360 354 342 336 338 335 338 337 345 356 4 12 27 33 32 36 66 81 69 67 90 125 136 140 144 153 158 159 160 162 165 169 173 178 185 188 187 191 196
284 323 340 356 358 346 337 333 332 334 334 336 336 342 348 351 3 22 34 27 28 47 77 85 87 95 121 136 144 153 161 164 166 169 171 177 183 190 193 198 194 191 196 192
306 344 321 313 325 330 327 328 329 327 326 331 333 328 338 346 4 27 40 40 38 38 52 73 90 108 121 140 155 162 168 170 172 175 178 180 184 197 210 208 212 213 208 201
302 314 301 297 311 326 322 320 320 317 313 315 330 339 343 345 10 23 32 37 33 25 27 47 80 99 124 156 170 181 183 179 177 182 185 189 190 194 205 220 223 225 224 221
324 322 305 317 317 317 314 313 311 309 314 317 329 341 350 358 25 26 20 22 20 18 26 35 55 60 55 161 184 195 194 192 187 190 191 194 197 199 200 203 208 223 227 227
319 314 301 304 307 312 313 311 307 304 317 333 344 349 353 6 18 19 12 12 23 32 33 34 38 21 8 342 217 212 207 202 195 194 194 196 198 201 207 212 216 215 206 221
312 308 309 313 316 316 314 311 305 305 315 321 341 351 353 1 16 20 12 13 28 28 18 19 13 353 342 322 274 241 232 226 210 201 200 201 203 208 213 215 219 219 219 215
314 316 321 321 319 316 315 313 312 315 320 323 336 339 338 343 8 20 13 13 26 29 22 18 355 338 330 321 292 262 254 243 227 217 215 214 213 216 218 217 221 226 228 219
298 302 309 310 309 310 312 319 330 338 335 338 341 345 350 357 355 351 344 339 336 6 41 23 354 335 329 330 314 287 264 250 238 232 228 226 228 224 222 225 228 233 236 233
303 309 317 321 319 316 322 332 342 345 349 352 354 352 348 348 345 339 335 340 343 336 348 348 339 336 324 323 329 299 281 262 253 246 236 243 243 232 229 230 233 234 233 228
309 314 319 324 331 334 335 338 341 344 348 352 352 347 344 343 344 336 333 328 338 327 321 321 320 315 315 306 313 286 281 274 266 259 250 245 244 242 237 237 239 240 238 236
302 310 317 320 320 323 325 325 327 329 336 348 346 333 324 325 328 322 315 303 327 342 324 320 317 309 304 309 306 286 276 275 270 265 263 261 258 256 251 247 245 244 242 240
296 299 301 303 303 305 310 312 312 313 319 324 321 314 312 313 316 310 289 284 311 327 326 308 301 307 309 312 293 282 278 278 278 276 272 269 266 265 264 263 259 255 250 245
284 284 287 290 289 290 295 297 298 298 298 296 295 297 298 297 299 299 299 310 314 318 316 294 306 312 313 309 292 286 284 282 281 282 280 277 274 272 272 269 268 268 263 257
281 283 280 282 283 283 286 285 280 275 276 279 276 274 280 291 290 269 270 303 312 314 306 306 313 313 315 311 295 292 289 286 284 283 284 282 277 274 274 276 276 273 269 266
273 274 272 271 271 270 275 283 284 277 273 272 272 266 255 251 266 285 293 296 307 313 305 310 315 317 317 299 295 296 296 290 288 288 285 288 287 284 282 280 279 279 276 273
264 264 263 257 256 261 269 276 278 280 282 283 282 273 266 267 272 279 285 288 293 305 304 298 304 309 299 292 290 292 292 300 304 299 291 287 286 285 285 285 285 282 280 277
263 260 262 265 259 248 248 256 265 272 272 274 281 280 273 275 279 283 286 288 292 294 292 292 292 291 290 288 286 285 285 287 289 291 290 287 284 282 281 281 281 281 281 278